User: anonymous   Login
Location: Antioch Baptist Church
(32.6696°N, 85.7327°W)
Time: 23:00:09
(UTC+00:00)
Language:

CZ-2D R/B - Orbit

View from above orbital plane
View from above orbital plane
View from above satellite
View from above satellite

Ground track
Ground track

The orbit data is extracted from the following two-line orbital elements,

1 37932U 11068C   20272.59307073  .00000006  00000-0  22072-4 0  9990
2 37932  98.6614 206.9321 0037282 164.5867   8.6411 14.22044723459762
Epoch (UTC): 28 September 2020 14:14:01
Eccentricity: 0.0037282
inclination: 98.6614°
perigee height: 791 km
apogee height: 845 km
right ascension of ascending node: 206.9321°
argument of perigee: 164.5867°
revolutions per day: 14.22044723
mean anomaly at epoch: 8.6411°
orbit number at epoch: 45976

The dashed part of the orbit path shows where the satellite is in the earth's shadow,  

DLR